Regional Weather Roundup
Issued by NWS

Home | Current Version | Previous Version | Graphics & Text | Print | Product List | Glossary On
Versions: 1 2 3 4 5 6 7 8 9 10 11 12 13 14 15 16 17 18 19 20 21 22 23 24 25 26 27 28
000
ASUS45 KCYS 240710
RWRWY

WYOMING REGIONAL WEATHER ROUNDUP
NATIONAL WEATHER SERVICE CHEYENNE WY
1200 AM MST TUE JAN 24 2017

NOTE:  "FAIR" INDICATES FEW OR NO CLOUDS BELOW 12,000 FEET
WITH NO SIGNIFICANT WEATHER AND/OR OBSTRUCTIONS TO VISIBILITY.

WYZ001-240800-
YELLOWSTONE NATIONAL PARK

CITY           SKY/WX    TMP DP  RH WIND       PRES   REMARKS
LK YELLOWSTONE   N/A     18  12  77 CALM      29.51R
W YELLOWSTONE  NOT AVBL

$$
WYZ002>013-054>058-071-098>099-240800-
NORTHERN WYOMING

CITY           SKY/WX    TMP DP  RH WIND       PRES   REMARKS
JACKSON        CLOUDY    25  25 100 N12       29.47R WCI  14
CODY           LGT SNOW  19  16  88 NW15      29.67R FOG     WCI   5
GREYBULL       LGT SNOW  22  18  85 CALM      29.66R FOG
WORLAND        LGT SNOW  22  21  96 W7        29.65S VSB 1   WCI  13
SHERIDAN       CLOUDY    20  17  88 W6        29.75S WCI  12
BUFFALO        LGT SNOW  19  14  81 N17G24    29.67F WCI   4
GILLETTE       SNOW      16  15  96 N12       29.71F VSB 1/2 WCI   3
HULETT         FOG       18  14  86 MISG      29.72R VSB<1/4
NEWCASTLE      CLOUDY    21  21 100 NW7       29.69R WCI  13

$$
WYZ014>020-022>026-101>103-240800-
CENTRAL WYOMING

CITY           SKY/WX    TMP DP  RH WIND       PRES   REMARKS
BIG PINEY      LGT SNOW  21  20  96 N5        29.45R VSB 3/4 WCI  15
PINEDALE       CLOUDY    21  21 100 E5        29.46S WCI  15
DUBOIS         NOT AVBL
LANDER         SNOW      22  20  92 N12       29.55S VSB 1/2 WCI  10
RIVERTON       SNOW      20  19  96 N20G28    29.56S VSB 1/2 WCI   4
CASPER         LGT SNOW  18  15  88 NE21      29.57R FOG     WCI   1
DOUGLAS        LGT SNOW  25  22  88 NE6       29.58F FOG     WCI  18

$$
WYZ021-027>030-104>119-240800-
SOUTHERN WYOMING

CITY           SKY/WX    TMP DP  RH WIND       PRES   REMARKS
EVANSTON       MOCLDY    18  14  84 SW15      29.53R WCI   4
ROCK SPRINGS   LGT SNOW  22  17  81 W20       29.51R WCI   7
RAWLINS        MOCLDY    26  19  74 SW14      29.48S WCI  14
LARAMIE        FAIR      17  10  74 S12       29.49F WCI   4
CHEYENNE       CLOUDY    30  28  92 NW3       29.52F
TORRINGTON     LGT SNOW  26  23  88 NE16      29.57F FOG     WCI  14

$$




USA.gov is the U.S. government's official web portal to all federal, state and local government web resources and services.